Location: Drocourt
(49.0571°N, 1.7669°E)
Time: 12:05:41
(UTC+00:00)

Meteor 2-2 Rocket - Visible Passes

Search period start: 28 September 2023 00:00
Search period end: 08 October 2023 00:00
Orbit: 852 x 928 km, 81.3° (Epoch: 27 September)

Date Brightness Start Highest point End Pass type
(mag) Time Alt. Az. Time Alt. Az. Time Alt. Az.
28 Sep 6.9 00:53:02 11° E 00:53:28 11° ENE 00:54:53 10° ENE visible
28 Sep 4.5 02:35:55 67° ESE 02:36:07 67° E 02:41:54 10° NNE visible
28 Sep 5.5 04:18:48 21° W 04:20:26 23° WNW 04:25:01 10° N visible
29 Sep 6.8 00:53:17 13° ENE 00:53:17 13° ENE 00:55:30 10° NE visible
29 Sep 4.4 02:36:10 74° ENE 02:36:10 74° ENE 02:41:42 10° NNE visible
29 Sep 5.6 04:19:03 19° WNW 04:20:19 21° WNW 04:24:36 10° NNW visible
30 Sep 6.7 00:53:31 14° ENE 00:53:31 14° ENE 00:55:48 10° NE visible
30 Sep 4.4 02:36:23 70° NNE 02:36:23 70° NNE 02:41:29 10° NNE visible
30 Sep 5.7 04:19:15 18° WNW 04:20:13 19° WNW 04:24:11 10° NNW visible
01 Oct 6.7 00:53:41 16° ENE 00:53:41 16° ENE 00:55:57 10° NE visible
01 Oct 4.6 02:36:33 60° N 02:36:33 60° N 02:41:15 10° N visible
01 Oct 5.9 04:19:25 16° WNW 04:20:07 16° WNW 04:23:42 10° NNW visible
02 Oct 6.6 00:53:50 17° ENE 00:53:50 17° ENE 00:56:01 10° NE visible
02 Oct 4.8 02:36:42 51° N 02:36:42 51° N 02:41:01 10° N visible
02 Oct 6.0 04:19:34 14° WNW 04:20:02 15° NW 04:23:09 10° NNW visible
03 Oct 6.6 00:53:57 18° NE 00:53:57 18° NE 00:56:01 10° NE visible
03 Oct 5.1 02:36:49 43° N 02:36:49 43° N 02:40:46 10° N visible
03 Oct 6.1 04:19:41 13° WNW 04:19:58 13° NW 04:22:31 10° NNW visible
04 Oct 6.6 00:54:03 18° NE 00:54:03 18° NE 00:55:59 10° NE visible
04 Oct 5.3 02:36:55 37° NNW 02:36:55 37° NNW 02:40:30 10° N visible
04 Oct 6.2 04:19:47 11° NW 04:19:54 11° NW 04:21:41 10° NW visible
05 Oct 6.6 00:54:08 18° NE 00:54:08 18° NE 00:55:56 10° NNE visible
05 Oct 5.5 02:36:59 32° NNW 02:36:59 32° NNW 02:40:14 10° N visible
06 Oct 6.6 00:54:11 18° NE 00:54:11 18° NE 00:55:50 10° NNE visible
06 Oct 5.7 02:37:02 28° NNW 02:37:02 28° NNW 02:39:57 10° N visible
07 Oct 6.7 00:54:13 18° NE 00:54:13 18° NE 00:55:43 10° NNE visible
07 Oct 5.9 02:37:04 25° NNW 02:37:04 25° NNW 02:39:39 10° N visible
